TimeCDT,TemperatureF,Dew PointF,Humidity,Sea Level PressureIn,VisibilityMPH,Wind Direction,Wind SpeedMPH,Gust SpeedMPH,PrecipitationIn,Events,Conditions,WindDirDegrees,DateUTC
12:54 AM,37.9,33.1,83,30.24,10.0,Calm,Calm,-,N/A,,Clear,0,2013-05-27 05:54:00
1:54 AM,37.0,32.0,82,30.19,10.0,Calm,Calm,-,N/A,,Clear,0,2013-05-27 06:54:00
2:54 AM,36.0,34.0,93,30.21,10.0,Calm,Calm,-,N/A,,Clear,0,2013-05-27 07:54:00
3:54 AM,35.1,32.0,89,30.19,10.0,Calm,Calm,-,N/A,,Clear,0,2013-05-27 08:54:00
4:54 AM,35.1,33.1,92,30.19,10.0,Calm,Calm,-,N/A,,Clear,0,2013-05-27 09:54:00
5:54 AM,35.1,33.1,92,30.18,10.0,Calm,Calm,-,N/A,,Clear,0,2013-05-27 10:54:00
6:54 AM,42.1,37.0,82,30.19,10.0,Calm,Calm,-,N/A,,Clear,0,2013-05-27 11:54:00
7:54 AM,53.1,37.0,55,30.18,10.0,SE,8.1,-,N/A,,Clear,140,2013-05-27 12:54:00
8:54 AM,57.9,37.9,47,30.16,10.0,SE,5.8,-,N/A,,Clear,140,2013-05-27 13:54:00
9:54 AM,64.0,39.0,40,30.13,10.0,SSE,9.2,-,N/A,,Clear,150,2013-05-27 14:54:00
10:54 AM,66.9,36.0,32,30.11,10.0,ESE,11.5,21.9,N/A,,Clear,120,2013-05-27 15:54:00
11:54 AM,70.0,37.0,30,30.11,10.0,SE,11.5,20.7,N/A,,Clear,130,2013-05-27 16:54:00
12:54 PM,69.1,35.1,29,30.10,10.0,SSE,13.8,24.2,N/A,,Clear,150,2013-05-27 17:54:00
1:54 PM,69.1,35.1,29,30.07,10.0,SSE,15.0,23.0,N/A,,Clear,150,2013-05-27 18:54:00
2:54 PM,66.9,35.1,31,30.05,10.0,SSE,13.8,25.3,N/A,,Clear,150,2013-05-27 19:54:00
3:54 PM,68.0,36.0,31,30.04,10.0,SE,13.8,-,N/A,,Clear,140,2013-05-27 20:54:00
4:54 PM,66.0,35.1,32,30.03,10.0,Variable,6.9,-,N/A,,Clear,0,2013-05-27 21:54:00
5:54 PM,64.9,37.9,37,30.02,10.0,South,10.4,-,N/A,,Clear,170,2013-05-27 22:54:00
6:54 PM,63.0,37.9,40,30.00,10.0,SE,5.8,-,N/A,,Scattered Clouds,130,2013-05-27 23:54:00
7:54 PM,61.0,37.9,42,30.00,10.0,SE,5.8,-,N/A,,Overcast,140,2013-05-28 00:54:00
8:54 PM,59.0,37.0,44,29.99,10.0,SE,4.6,-,N/A,,Overcast,140,2013-05-28 01:54:00
9:54 PM,57.9,37.9,47,29.98,10.0,SE,4.6,-,N/A,,Overcast,140,2013-05-28 02:54:00
10:54 PM,55.9,39.9,55,29.96,10.0,Calm,Calm,-,N/A,,Overcast,0,2013-05-28 03:54:00
11:54 PM,55.9,42.1,60,29.94,10.0,Calm,Calm,-,N/A,,Overcast,0,2013-05-28 04:54:00